User: anonymous   Login
Location: Carnetin
(48.9010°N, 2.7059°E)
Time: 08:14:56
(UTC+00:00)
Language:

Lacrosse 4 Rocket - Orbit

View from above orbital plane
View from above orbital plane
View from above satellite
View from above satellite

Ground track
Ground track

The orbit data is extracted from the following two-line orbital elements,

1 26474U 00047B   22016.86528303  .00000894  00000-0  86747-4 0  9997
2 26474  67.9938 283.1577 0060862 280.4485  78.9802 14.96381015165760
Epoch (UTC): 16 January 2022 20:46:00
Eccentricity: 0.0060862
inclination: 67.9938°
perigee height: 536 km
apogee height: 620 km
right ascension of ascending node: 283.1577°
argument of perigee: 280.4485°
revolutions per day: 14.96381015
mean anomaly at epoch: 78.9802°
orbit number at epoch: 16576

The dashed part of the orbit path shows where the satellite is in the earth's shadow,  

DLR